Terug naar catalogus

STARLINK-11404

ActiefCommunicatieVLEO
NORAD 62019·PAYLOAD·🇺🇸 United States

Gelanceerd Nov 18, 2024 vanaf Vandenberg Space Force Base

Loading…

Volgende Passages (komende 24 uur)

TLE

VersSource: CelesTrak SupGP

Epoch: Sep 14, 2026, 21:12 UTC

1 62019C 24213M   26257.88381944  .00025258  00000+0  20799-3 0  2575
2 62019  53.1571 188.9383 0001202  91.5712 341.8236 15.69705337    16

Volg STARLINK-11404 in realtime met AllMySat

Download on the App Store